User: anonymous   Login
Location: Fremont
(37.5480°N, 121.9880°W)
Time: 09:38:14
(UTC-07:00)
Language:

Cosmos 1766 - Orbit

View from above orbital plane
View from above orbital plane
View from above satellite
View from above satellite

Ground track
Ground track

The orbit data is extracted from the following two-line orbital elements,

1 16881U 86055A   17147.82823680 +.00000089 +00000-0 +35444-5 0  9997
2 16881 082.5109 043.6082 0016196 167.1061 193.0586 15.10108576657205
Epoch (UTC): 27 May 2017 19:52:39
Eccentricity: 0.0016196
inclination: 82.5109°
perigee height: 524 km
apogee height: 547 km
right ascension of ascending node: 43.6082°
argument of perigee: 167.1061°
revolutions per day: 15.10108576
mean anomaly at epoch: 193.0586°
orbit number at epoch: 65720

The dashed part of the orbit path shows where the satellite is in the earth's shadow,  

DLR